Location: Azenweiler
(47.8027°N, 9.4096°E)
Time: 03:15:57
(UTC+00:00)

Cosmos 1626 Rocket - Pass Details

Date: 21 March 2026
Orbit: 596 x 624 km, 82.5° (Epoch: 13 April)

Event Time Altitude Azimuth Distance (km) Brightness Sun altitude
Rises 02:57:02 0° 354° (N) 2,890 7.3 -24.4°
Reaches altitude 10° 02:59:20 10° 360° (N) 1,976 6.5 -24.0°
Maximum altitude 03:03:36 52° 77° (ENE) 759 4.3 -23.4°
Drops below altitude 10° 03:07:48 10° 154° (SSE) 1,943 6.1 -22.8°
Sets 03:10:02 0° 159° (SSE) 2,837 6.9 -22.4°
